Regional Weather Roundup
Issued by NWS

Home | Current Version | Previous Version | Graphics & Text | Print | Product List | Glossary Off
Versions: 1 2 3 4 5 6 7 8 9 10 11 12 13 14 15 16 17 18 19 20 21 22 23 24 25 26 27 28 29 30 31 32 33 34 35 36 37 38 39 40 41 42 43 44 45 46 47 48 49 50

000
ASUS43 KLOT 041910
RWRIL

ILLINOIS REGIONAL WEATHER ROUNDUP
NATIONAL WEATHER SERVICE CHICAGO/ROMEOVILLE IL
100 PM CST WED MAR 04 2015

NOTE: "FAIR" INDICATES FEW OR NO CLOUDS BELOW 12,000 FEET WITH NO
SIGNIFICANT WEATHER AND/OR OBSTRUCTIONS TO VISIBILITY.

* THESE STATIONS ARE NOT UNDER NWS QUALITY CONTROL. THEY ALSO MAY NOT
  REPORT WEATHER SUCH AS PRECIPITATION OR FOG.

ILZ001-002-007-009-015-016-024-042000-
NORTHWEST ILLINOIS

CITY           SKY/WX    TMP DP  RH WIND       PRES   REMARKS
MOLINE         SUNNY     17   4  56 NW16      30.26S WCI   2
STERLING*      SUNNY     19   7  58 W15       30.22S WCI   5
SAVANNA*       SUNNY     19   1  44 NW13      30.22F WCI   7
$$

ILZ003-004-008-010-011-017-018-042000-
NORTH CENTRAL ILLINOIS

CITY           SKY/WX    TMP DP  RH WIND       PRES   REMARKS
ROCKFORD       PTSUNNY   16   2  54 NW16G23   30.20R WCI   1
FREEPORT*      SUNNY     14   1  56 W15       30.21S WCI  -2
ROCHELLE*      SUNNY     16   4  59 NW14      30.19F WCI   2
DE KALB*       SUNNY     15   5  65 NW17G23   30.16F WCI  -1
PERU*          MOSUNNY   19   8  64 NW17      30.21F WCI   3
$$

ILZ005-006-012>014-019>023-042000-
NORTHEAST ILLINOIS

CITY           SKY/WX    TMP DP  RH WIND       PRES   REMARKS
CHICAGO-OHARE  PTSUNNY   19   6  57 NW13      30.14R WCI   6
CHICAGO-MIDWAY CLOUDY    22   6  50 NW16      30.14S WCI   8
AURORA         MOSUNNY   18   7  62 NW15      30.17R WCI   4
LANSING*       PTSUNNY   23   9  55 NW12G18   30.13S WCI  12
JOLIET*        PTSUNNY   18   6  58 NW12G20   30.16F WCI   5
WAUKEGAN       MOSUNNY   19   0  43 NW13G21   30.12F WCI   6
DUPAGE AIRPORT MOSUNNY   19   4  51 NW12      30.15R WCI   7
KANKAKEE*      CLOUDY    20  11  68 NW15      30.17R WCI   7
WHEELING         N/A     21   3  45 NW16G23   30.16S WCI   7
MORRIS*        PTSUNNY   18  10  71 NW9G20    30.18S WCI   7
ROMEOVILLE*    PTSUNNY   19   8  60 NW13      30.14F WCI   6
NORTHERLY ISL    N/A     22   6  50 W15         N/A  WCI   9
$$

LMZ740>746-042000-
SOUTHERN LAKE MICHIGAN

STATION/POSITION SKY/WX   TEMP    WIND        PRES    VSBY  WAVE
                          AIR SEA DIR/SP/G                  HT/PER
                          (F)     (DEG/KT/KT) (MB)    (MI)  (FT/S)
WAUKEGAN HARBOR            19                   N/A
HARRISON CRIB              20     290/ 15/ 18   N/A
BURNHAM HARBOR             22     300/ 10/ 15   N/A
CALUMET HARBOR             22     290/  9/ 13 1019.2R
MICHIGAN CITY              22     290/ 16/ 19   N/A
$$

ILZ025>027-034>036-040-047-049-050-058-095>099-042000-
WEST-CENTRAL ILLINOIS

CITY           SKY/WX    TMP DP  RH WIND       PRES   REMARKS
QUINCY         PTSUNNY   21   2  43 N17       30.25R WCI   7
GALESBURG*     MOSUNNY   19   6  58 NW15G21   30.23F WCI   5
MACOMB*        PTSUNNY   19   8  64 NW17G23   30.28S WCI   3
JACKSONVILLE*  CLOUDY    21   7  55 NW12      30.24F WCI   9
PITTSFIELD*    CLOUDY    22   6  51 N12G17    30.25F WCI  10
$$

ILZ028>032-037-038-041>044-048-051>054-059>061-042000-
CENTRAL ILLINOIS

CITY           SKY/WX    TMP DP  RH WIND       PRES   REMARKS
PONTIAC        PTSUNNY   18  10  69 NW16G22   30.19F WCI   4
BLOOMINGTON    PTSUNNY   18   6  59 NW17      30.19R WCI   3
DECATUR        FLURRIES  19   6  57 NW13      30.21R WCI   6
PEORIA         PTSUNNY   21   2  43 NW13G24   30.23S WCI   9
LACON*         PTSUNNY   17   6  59 NW10G18   30.23F WCI   5
LINCOLN*       CLOUDY    22   8  55 NW7       30.25F WCI  13
SPRINGFIELD    CLOUDY    20   7  57 NW12      30.24S WCI   8
TAYLORVILLE    CLOUDY    19   9  63 N12       30.22F WCI   7
$$

ILZ033-039-045-046-055>057-062-063-042000-
EAST-CENTRAL ILLINOIS

CITY           SKY/WX    TMP DP  RH WIND       PRES   REMARKS
CHAMPAIGN      CLOUDY    17   8  67 NW15      30.19R WCI   2
DANVILLE*      CLOUDY    18  11  74 NW15G22   30.14R WCI   3
RANTOUL*       CLOUDY    19   9  66 NW15      30.18R WCI   5
MATTOON        CLOUDY    19   9  65 NW18      30.19R WCI   4
PARIS*         CLOUDY    19  13  77 NW14      30.19R WCI   6
$$

ILZ079-100>102-042000-
SOUTHWEST ILLINOIS

CITY           SKY/WX    TMP DP  RH WIND       PRES   REMARKS
ALTON          CLOUDY    19   3  49 NW7       30.24F WCI  10
BELLEVILLE     CLOUDY    21  12  68 N15       30.21F WCI   8
CAHOKIA*       CLOUDY    22   9  57 N15       30.24F WCI   9
SPARTA*        LGT SNOW  20  16  86 N10       30.21F WCI   8
$$

ILZ064>066-069>071-074>076-080>082-084>086-088>090-092>094-042000-
SOUTH-CENTRAL ILLINOIS

CITY           SKY/WX    TMP DP  RH WIND       PRES   REMARKS
CARBONDALE     FOG       21  17  84 N16       30.17F VSB 1/2 WCI   7
CAIRO*         LGT SNOW N/A N/A N/A N15       30.08F
EFFINGHAM*     CLOUDY    20   8  57 NW15G21   30.21F WCI   7
MARION         SNOW      23  19  86 N12G17    30.17F VSB 1/2 WCI  12
MT. VERNON     CLOUDY    19  12  73 N5        30.18F VSB 1/2 WCI  13
CENTRALIA*     LGT SNOW  20  15  82 N17       30.19F VSB 1   WCI   5
SALEM*         LGT SNOW  22  15  72 NW15      30.20F WCI   9
METROPOLIS*    MIX PCPN  29  29 100 N14G23    30.07F WCI  18
$$

ILZ067-068-072-073-078-083-087-091-042000-
SOUTHEAST ILLINOIS

CITY           SKY/WX    TMP DP  RH WIND       PRES   REMARKS
LAWRENCEVILLE  SNOW      23  17  78 NW21      30.16F WCI   8
FLORA*         LGT SNOW  21  13  71 NW13      30.18F WCI   9
FAIRFIELD*     SNOW      21  18  88 NW8G17    30.17S VSB 1/2 WCI  11
HARRISBURG*    LGT SNOW  24  23  95 N15       30.16F VSB 1   WCI  11
ROBINSON*      CLOUDY    21  15  75 NW14      30.18S WCI   8
CARMI*         LGT SNOW  26  24  90 CALM      30.14F VSB 3/4
$$

ABBREVIATIONS USED IN REMARKS
   TC - TEMPERATURE IN CELSIUS
  WCI - WIND CHILL INDEX
   HX - HEAT INDEX
  VSB - VISIBILITY
$$



USA.gov is the U.S. government's official web portal to all federal, state and local government web resources and services.